01:58
Airports
History
Links
Donate
Help keep this website running!
PayPal
Bitcoin
This page is community maintained. The information is intended for PC simulator navigation or reference.
Always use approved charts for navigation.
SJQK
Barra do Vento
Barra do Vento (SJQK)
Boa Vista, Roraima, Brazil
4
Lat/Lng:2° 41' 44" N / 60° 48' 51" W
2.695556 / -60.814167
Elevation:279'ft / 85mMSL
ID / ICAO:SJQK
Runways:1
Longest:(08-26) 997.8m / 3,274ft Dirt
Distance To
Airport ID:
Nearby VORs <50NM
Nearby NDBs
Nearby WeatherUpdated 08-17-17 02:00 GMT
Nearby weather at SBBV, Boa Vista Intl located 13.5 nautical miles from SJQK
Altimeter: 29.85
Visibility: 6.2 statute miles
Wind: 4 knots (080°)
Temp: 29°c 84°f
Humidity: 79.1%

METAR: SBBV 170200Z 08004KT CAVOK 29/25 Q1011

(Powered by phpweather)
Runway 08 / 26
Dimensions:997.8 x 18m 3274' x 59'ft
Surface:Dirt
Runway 08 [A]Runway 26 [B]
Heading:065°TH 245°TH
Lat:
Lng:
2° 41' 37.24"N
60° 49' 5.74"W
2° 41' 50.76"N
60° 48' 36.26"W
User Notes and Comments
Google Map
Nearby Airports
4 Estancia Norteagro 2.8 NM
SWQR ESE 119°
(C) Boa Vista Intl 13.5 NM
SBBV (WX) NE 39°
4 Novo Intento 14.8 NM
SWNN ENE 66°
(U) Pouso da Aguia 16.8 NM
SWPD ENE 68°
4 Ouro Fino 18.0 NM
SWOF NNE 21°
4 Fazenda Sao Marco 33.4 NM
SWSK NE 42°
4 Manoa - Pium 53.4 NM
SJLP ENE 68°
VFR Chart
Flight Planning at SkyVector.com